Home   Weather   Ceuta   Past weeks

Flag for Spain Past Weather in Ceuta, Ceuta, Spain — Yesterday and Last 2 Weeks

Now
79 °F

Sunny.


Feels Like: 81 °F
Forecast: 70 / 85 °F
Wind: 16 mph from Southwest

Location: Gibraltar Airport

Current Time: Jul 23, 2017 at 9:01:48 pm

Latest Report: Jul 23, 2017 at 7:50 pm


Visibility: 10 mi

Pressure: 29.98 "Hg

Humidity: 61%

Dew Point: 64 °F

Location of CeutaLocation

Past Weather in Ceuta — Graph

°F

Ceuta Temperature Yesterday

Maximum temperature yesterday: 82 °F (at 2:50 pm)
Minimum temperature yesterday: 68 °F (at 12:50 am)
Average temperature yesterday: 74 °F

High & Low Weather Summary for the Past Weeks

 TemperatureHumidityPressure
High84 °F (Jul 9, 6:50 pm)100% (Jul 12, 4:50 am)30.09 "Hg (Jul 12, 4:50 am)
Low66 °F (Jul 12, 7:50 am)45% (Jul 23, 2:50 pm)29.83 "Hg (Jul 10, 5:50 pm)
Average75 °F79%29.97 "Hg
* Reported Jul 8 7:50 pm — Jul 23 7:50 pm, Ceuta. Weather by CustomWeather, © 2017

Note: Actual official high and low records may vary slightly from our data, if they occured in-between our weather recording intervals... More about our weather records

Advertising

Ceuta Weather History for the Previous 24 Hours

Scroll right to see more
 ConditionsComfort  
Time TempWeatherWind HumidityBarometerVisibility
7:50 pm
Sun, Jul 23
79 °FSunny.16 mph61%29.98 "Hg10 mi
6:50 pm81 °FSunny.18 mph54%29.98 "Hg10 mi
5:50 pm81 °FSunny.16 mph58%29.98 "Hg10 mi
4:50 pm84 °FSunny.17 mph55%30.01 "Hg10 mi
3:50 pm82 °FSunny.16 mph55%30.01 "Hg10 mi
2:50 pm82 °FSunny.18 mph45%30.04 "Hg10 mi
1:50 pm81 °FSunny.14 mph48%30.04 "Hg10 mi
12:50 pm81 °FSunny.12 mph54%30.04 "Hg10 mi
11:50 am81 °FSunny.10 mph51%30.04 "Hg10 mi
10:50 am75 °FSunny.8 mph65%30.04 "Hg10 mi
9:50 am73 °FPassing clouds.9 mph69%30.04 "HgN/A
8:50 am70 °FPassing clouds.8 mph73%30.01 "HgN/A
7:50 am72 °FPassing clouds.9 mph57%30.01 "HgN/A
6:50 am72 °FPassing clouds.7 mph57%30.01 "HgN/A
5:50 am73 °FClear.13 mph53%29.98 "HgN/A
4:50 am73 °FClear.12 mph53%29.98 "HgN/A
3:50 am73 °FClear.8 mph53%30.01 "HgN/A
2:50 am73 °FClear.12 mph53%30.01 "HgN/A
1:50 am73 °FClear.12 mph57%29.98 "HgN/A
12:50 am75 °FClear.14 mph54%30.01 "HgN/A
11:50 pm
Sat, Jul 22
73 °FClear.15 mph69%30.01 "HgN/A
10:50 pm77 °FClear.13 mph57%29.98 "HgN/A
9:50 pm77 °FClear.12 mph57%29.95 "HgN/A
Weather by CustomWeather, © 2017

See weather overviewHow to use our weather pages